Wind_Speed
41 42 43 45 46 47 47 49 48 49 52 53 53 52 52 53 52 53 53 52 51 51 50 50 50 50 51 50 48 47 47 46 45 43 41 40 38 38 37 37 36 35 35
40 41 42 43 45 46 46 47 47 49 50 51 51 52 52 52 52 53 53 52 52 52 50 50 51 51 51 51 50 49 48 48 46 45 44 42 41 40 39 38 37 36 36
39 39 41 42 43 45 45 46 47 48 49 49 51 52 52 52 52 53 52 52 52 51 51 51 51 51 51 50 51 50 48 49 47 46 46 44 43 41 40 39 38 38 37
38 39 40 41 42 42 43 45 44 45 46 47 49 50 51 51 52 52 51 52 52 51 52 52 51 51 51 51 51 50 49 49 48 46 46 45 43 42 41 41 40 40 39
37 37 38 39 39 40 41 42 42 44 45 46 47 47 49 50 51 51 51 51 52 51 51 51 50 50 51 50 51 50 50 49 48 47 47 46 44 43 42 41 41 40 40
35 35 36 37 38 38 38 40 42 43 44 45 45 45 45 47 48 48 50 49 50 50 49 49 50 50 50 50 51 50 49 49 49 48 47 46 44 42 41 41 40 40 40
33 33 35 36 35 35 37 39 40 40 41 42 42 44 45 45 46 47 47 48 48 48 48 48 48 49 50 50 50 48 48 48 49 47 47 46 43 43 42 42 41 41 40
33 32 33 34 34 35 36 37 38 38 40 40 41 42 43 43 44 46 47 47 47 46 46 48 47 47 49 50 50 48 47 47 48 46 46 46 44 43 42 42 42 41 40
32 31 31 31 33 35 37 37 37 37 38 39 39 41 42 42 43 44 46 46 46 46 47 48 47 46 47 49 49 47 46 46 46 46 45 44 43 42 42 41 41 41 40
30 31 31 32 33 34 36 37 37 36 38 38 38 39 40 41 42 43 44 44 45 45 45 46 45 46 47 47 47 47 46 46 45 45 44 44 42 42 41 41 41 41 40
30 30 30 30 32 33 35 36 36 36 36 37 37 38 39 39 41 42 44 44 43 44 44 45 45 45 46 46 45 45 44 44 44 43 43 42 41 41 41 41 41 40 40
30 30 29 29 31 32 34 35 36 36 37 37 37 37 37 38 39 41 43 43 43 44 44 44 45 44 46 46 45 44 44 44 43 42 42 41 41 41 40 40 40 40 40
30 30 29 29 30 32 33 34 35 36 37 37 36 35 36 37 39 40 41 43 42 42 44 44 44 44 45 46 45 44 44 43 43 41 41 40 40 40 41 41 40 39 39
31 30 28 28 30 32 33 34 34 35 36 36 36 36 36 37 37 38 40 41 40 41 42 42 43 44 44 44 43 42 43 43 43 41 40 40 39 39 40 39 38 38 37
31 31 30 29 29 31 31 32 32 33 35 35 35 36 37 38 38 38 39 40 39 40 41 41 42 43 44 43 42 42 42 42 41 40 40 40 39 39 39 38 38 37 37
30 30 30 30 30 30 31 32 33 33 33 34 34 34 37 38 37 37 38 40 39 40 40 41 41 42 42 42 42 42 42 42 41 40 38 39 40 39 39 38 38 37 38
30 30 30 30 30 31 31 31 32 33 33 34 35 35 36 37 38 38 38 38 38 40 39 41 41 41 41 41 41 42 42 42 41 40 39 39 38 38 38 37 37 37 39
30 31 31 31 30 30 30 30 31 32 33 35 36 38 38 37 38 38 38 38 38 38 39 40 41 40 40 40 41 41 41 41 40 39 39 38 37 37 37 36 37 37 37
32 32 32 31 30 30 31 30 30 30 31 33 35 37 39 38 38 39 39 40 39 39 39 38 40 40 40 40 41 40 40 39 38 38 37 37 35 35 35 35 35 36 36
32 32 32 31 30 30 30 30 30 30 30 31 33 35 36 37 38 38 39 39 40 40 39 38 39 38 38 38 39 39 38 38 36 35 35 35 34 34 34 34 34 35 36
31 30 30 30 30 30 29 29 29 29 30 30 31 33 34 36 37 39 40 39 39 39 38 38 38 38 37 36 37 37 37 36 35 34 34 34 33 32 32 33 34 35 36
30 29 28 28 29 29 29 28 28 28 28 29 30 31 33 35 36 38 38 38 39 39 39 38 38 38 37 36 36 36 35 34 33 32 33 33 32 32 32 33 34 34 36
29 28 27 27 27 27 27 27 27 27 27 27 28 29 31 33 34 35 37 37 38 38 37 38 38 38 37 37 36 35 35 34 34 34 33 33 33 33 32 33 33 33 34
28 28 27 26 26 26 26 27 27 27 27 27 27 28 30 31 33 34 36 37 37 37 37 38 38 38 36 36 35 34 34 33 34 35 34 34 33 33 32 32 33 34 33
28 28 27 26 26 26 26 26 26 27 27 27 28 29 29 30 31 33 34 35 36 36 36 37 38 38 37 36 35 34 34 33 32 32 33 34 34 32 31 32 33 33 33
28 28 27 26 26 27 27 26 26 26 27 28 28 28 29 29 30 31 32 33 35 35 35 36 36 37 37 37 37 36 35 34 33 32 32 33 32 31 31 31 31 31 31
Wind_Direction
269 261 257 255 253 252 251 250 250 249 249 249 248 248 247 246 245 245 245 245 244 244 244 244 244 244 244 243 243 243 245 247 249 250 251 251 253 254 256 259 262 265 269
269 260 257 254 253 253 252 251 250 249 250 250 250 249 247 246 245 245 245 244 244 244 244 243 243 243 243 243 242 242 244 246 248 249 250 250 252 254 256 259 262 265 268
271 261 256 254 253 253 252 250 249 250 250 250 250 247 246 246 245 245 244 244 244 244 243 243 242 242 240 241 242 242 243 245 247 248 250 251 252 254 255 258 261 264 267
273 264 258 255 253 253 252 250 249 251 251 251 248 246 247 247 245 244 244 244 243 243 242 242 241 241 240 240 240 241 243 244 245 247 249 250 252 254 255 258 260 263 267
275 266 259 256 253 252 252 251 251 252 252 252 248 248 248 247 244 243 244 244 242 241 241 242 241 240 239 239 239 241 242 244 244 246 249 250 251 253 255 257 260 263 266
277 267 260 254 253 253 253 253 251 251 251 250 248 248 248 246 244 244 242 241 240 239 240 241 240 240 239 238 238 239 241 242 244 245 248 249 250 252 254 257 259 262 265
276 269 261 255 254 255 254 254 252 251 251 250 248 248 248 245 244 242 241 238 238 238 238 238 239 238 237 237 236 238 240 241 243 244 247 247 249 251 253 257 259 263 265
276 272 264 257 255 257 256 255 253 252 251 250 249 248 246 244 244 242 239 237 237 237 237 237 238 237 237 236 236 237 239 241 242 244 246 247 249 251 254 257 260 263 265
274 270 263 257 257 258 257 257 254 252 250 249 247 246 244 244 243 241 238 237 236 235 237 236 236 236 236 236 237 238 239 241 243 244 246 247 249 250 253 256 260 263 265
271 268 261 257 259 257 255 254 252 251 250 249 247 245 246 245 243 240 238 237 236 236 237 236 235 235 234 235 236 238 240 242 243 244 246 248 248 251 253 257 260 263 266
273 268 263 263 262 258 255 253 252 250 249 249 247 246 246 244 243 240 238 236 235 236 236 235 234 235 233 234 236 238 240 242 243 244 246 247 249 250 254 257 260 264 266
274 268 265 264 262 259 256 252 251 249 248 249 249 246 245 243 241 239 237 236 235 235 234 234 234 233 233 233 236 239 240 241 241 243 246 247 248 249 253 257 261 263 266
274 269 267 265 262 260 256 252 251 250 250 250 249 246 246 244 240 238 237 235 235 235 233 233 233 232 232 233 236 240 240 240 241 243 245 246 248 250 253 257 260 263 267
273 270 269 267 263 260 257 253 253 252 250 249 248 247 246 243 240 239 236 233 234 233 231 231 232 232 233 234 237 239 240 241 241 243 245 247 248 250 252 256 259 263 266
273 271 271 270 266 259 256 254 254 253 250 251 249 247 245 243 241 238 236 235 235 232 231 232 232 233 234 235 237 239 240 241 241 244 246 248 249 250 252 255 260 263 266
275 273 271 269 266 263 260 256 255 254 252 251 250 247 244 242 240 239 238 235 234 233 233 233 233 235 236 237 238 238 239 240 241 244 246 247 249 251 253 255 260 263 267
274 273 272 270 269 264 261 258 255 254 252 253 250 246 244 242 240 240 240 238 236 234 234 235 235 234 236 238 239 238 239 240 241 244 246 248 250 252 253 257 261 264 268
274 273 273 271 268 265 261 260 258 255 255 254 249 246 244 242 240 239 240 239 236 234 233 234 234 235 237 238 239 237 238 240 242 245 247 247 250 252 255 260 262 265 269
276 275 274 271 268 265 262 260 259 258 257 253 248 246 243 241 240 241 240 238 236 234 233 234 234 235 237 239 241 241 240 240 243 245 247 248 251 253 257 259 262 266 268
277 276 274 270 268 266 263 261 258 257 256 253 248 245 243 242 241 241 239 238 236 235 235 234 234 236 238 239 240 240 238 239 241 243 246 249 252 255 257 259 262 266 269
276 275 274 270 268 266 264 261 258 256 255 253 250 246 245 243 242 241 240 239 238 236 234 233 234 235 237 238 237 237 237 240 242 242 245 249 252 255 258 260 262 266 270
275 275 274 271 267 265 264 261 259 257 255 253 250 246 244 242 241 240 240 239 237 236 233 233 234 235 236 237 237 237 238 239 240 241 244 248 252 255 257 260 264 267 271
273 274 273 270 267 264 261 260 259 258 255 253 250 246 243 241 239 239 239 239 236 234 233 234 234 235 237 236 235 236 237 240 240 241 243 248 252 253 256 261 265 269 272
273 273 272 269 266 264 261 259 258 257 255 253 251 248 245 243 241 239 237 236 234 232 233 233 234 235 236 237 238 239 239 239 239 240 244 248 251 254 259 263 267 269 270
273 272 270 268 265 264 262 259 258 257 254 253 252 250 247 244 241 238 235 234 232 232 232 232 234 236 237 238 240 240 240 241 242 244 246 249 251 254 259 263 267 269 271
272 271 270 269 265 262 260 258 257 257 254 253 252 249 247 244 242 238 234 232 232 232 232 233 234 236 237 237 238 239 241 242 245 248 249 249 250 254 258 263 267 269 271
Height
5626 5626 5629 5631 5635 5638 5641 5645 5649 5653 5657 5661 5666 5670 5674 5678 5683 5687 5692 5696 5701 5705 5710 5715 5719 5724 5728 5733 5738 5743 5747 5751 5754 5757 5760 5762 5765 5768 5770 5772 5773 5774 5774
5614 5615 5618 5620 5623 5626 5629 5633 5637 5641 5644 5648 5653 5656 5661 5665 5669 5673 5678 5683 5687 5692 5697 5702 5707 5711 5716 5721 5727 5732 5736 5740 5744 5748 5751 5754 5757 5760 5762 5764 5765 5766 5767
5603 5604 5607 5609 5612 5615 5618 5622 5625 5628 5631 5635 5639 5642 5646 5651 5656 5660 5665 5669 5674 5679 5684 5689 5694 5699 5704 5710 5715 5721 5725 5730 5734 5738 5742 5745 5749 5752 5754 5755 5757 5758 5758
5592 5593 5595 5598 5601 5604 5607 5610 5613 5616 5619 5622 5626 5630 5634 5638 5643 5647 5652 5656 5661 5666 5671 5676 5681 5687 5692 5698 5704 5709 5714 5719 5723 5728 5732 5737 5740 5743 5746 5747 5748 5749 5750
5582 5582 5584 5587 5590 5593 5596 5599 5602 5605 5607 5610 5614 5617 5621 5625 5630 5634 5638 5643 5648 5653 5658 5663 5669 5674 5680 5686 5692 5698 5703 5708 5714 5718 5723 5726 5730 5733 5736 5738 5740 5741 5742
5574 5574 5575 5578 5581 5583 5585 5587 5590 5594 5596 5599 5602 5606 5609 5613 5617 5621 5626 5630 5635 5640 5646 5651 5657 5663 5669 5675 5681 5686 5692 5698 5703 5708 5712 5717 5720 5724 5726 5729 5731 5732 5733
5565 5566 5568 5570 5573 5574 5576 5577 5580 5583 5585 5588 5592 5595 5598 5601 5606 5610 5614 5619 5624 5630 5635 5640 5645 5651 5657 5663 5669 5675 5681 5687 5693 5698 5702 5707 5710 5713 5717 5719 5721 5723 5724
5558 5559 5560 5562 5564 5566 5567 5569 5571 5574 5576 5579 5582 5585 5588 5591 5595 5599 5604 5609 5614 5619 5624 5629 5634 5640 5646 5652 5658 5664 5671 5677 5682 5688 5693 5697 5700 5703 5706 5710 5712 5714 5715
5552 5552 5554 5555 5557 5558 5559 5560 5562 5565 5567 5569 5572 5575 5578 5581 5585 5589 5594 5599 5604 5609 5614 5619 5625 5630 5636 5642 5649 5655 5661 5667 5673 5678 5683 5687 5690 5694 5697 5700 5702 5705 5706
5546 5546 5547 5548 5548 5549 5551 5552 5554 5556 5559 5561 5563 5566 5568 5571 5575 5579 5584 5589 5594 5599 5604 5610 5616 5622 5628 5633 5640 5646 5652 5658 5664 5669 5673 5677 5681 5685 5688 5691 5693 5694 5696
5539 5538 5539 5540 5540 5541 5542 5544 5546 5548 5550 5552 5554 5557 5559 5562 5566 5570 5574 5579 5584 5589 5595 5600 5606 5612 5619 5625 5632 5638 5643 5649 5654 5660 5664 5668 5671 5675 5678 5681 5683 5684 5686
5531 5531 5531 5532 5532 5533 5535 5536 5537 5539 5541 5543 5545 5547 5550 5553 5556 5560 5565 5570 5575 5580 5586 5591 5597 5603 5610 5617 5623 5629 5634 5640 5645 5650 5654 5658 5661 5665 5669 5671 5673 5675 5676
5524 5524 5524 5524 5525 5525 5527 5528 5529 5531 5533 5535 5536 5539 5542 5545 5548 5552 5556 5561 5566 5571 5577 5582 5589 5595 5602 5608 5614 5620 5626 5630 5636 5641 5645 5649 5652 5656 5659 5662 5664 5665 5666
5516 5517 5517 5517 5517 5518 5518 5520 5521 5523 5524 5526 5528 5531 5534 5537 5540 5544 5548 5552 5557 5563 5569 5575 5581 5587 5593 5599 5605 5611 5616 5621 5627 5631 5636 5640 5643 5647 5650 5652 5654 5655 5657
5510 5510 5510 5510 5510 5510 5511 5512 5513 5514 5516 5518 5520 5522 5526 5529 5532 5536 5540 5544 5549 5555 5561 5566 5572 5578 5584 5590 5596 5602 5608 5613 5618 5622 5627 5631 5634 5638 5640 5643 5645 5646 5647
5504 5504 5503 5503 5503 5503 5503 5504 5505 5507 5508 5510 5512 5514 5517 5521 5524 5528 5532 5536 5541 5547 5552 5557 5563 5569 5575 5581 5587 5592 5598 5604 5609 5614 5618 5621 5625 5628 5631 5633 5635 5637 5638
5497 5496 5496 5495 5495 5495 5495 5496 5497 5499 5500 5501 5503 5506 5509 5512 5516 5520 5524 5528 5533 5538 5544 5549 5555 5561 5567 5572 5577 5583 5589 5595 5600 5604 5608 5612 5616 5618 5621 5624 5625 5627 5628
5489 5488 5487 5487 5487 5487 5488 5488 5489 5490 5491 5493 5495 5497 5500 5504 5508 5512 5516 5520 5525 5530 5536 5541 5547 5552 5558 5563 5569 5574 5580 5586 5590 5595 5599 5603 5606 5609 5612 5614 5616 5618 5619
5481 5480 5479 5479 5479 5479 5479 5480 5481 5482 5483 5484 5486 5489 5492 5495 5499 5503 5507 5512 5517 5522 5528 5533 5539 5544 5550 5555 5560 5565 5571 5576 5581 5585 5589 5593 5597 5600 5602 5605 5607 5609 5610
5472 5471 5471 5471 5471 5471 5471 5472 5473 5473 5474 5476 5478 5480 5483 5487 5490 5494 5499 5503 5508 5514 5519 5524 5530 5536 5542 5547 5552 5557 5562 5568 5573 5577 5580 5584 5588 5591 5593 5596 5598 5600 5600
5464 5463 5463 5462 5462 5462 5463 5464 5464 5466 5467 5468 5470 5472 5475 5478 5482 5486 5490 5495 5499 5505 5510 5516 5522 5528 5534 5539 5544 5548 5554 5559 5564 5568 5572 5577 5580 5582 5585 5587 5589 5590 5591
5456 5455 5455 5454 5454 5454 5454 5456 5457 5458 5459 5460 5462 5464 5467 5470 5473 5477 5481 5486 5491 5496 5502 5508 5514 5520 5525 5531 5535 5541 5546 5551 5556 5560 5565 5568 5571 5574 5576 5578 5580 5581 5581
5448 5447 5447 5446 5446 5446 5447 5448 5449 5450 5451 5452 5454 5456 5458 5462 5465 5469 5473 5477 5482 5488 5494 5500 5506 5512 5517 5522 5527 5532 5537 5542 5547 5551 5556 5559 5562 5565 5568 5569 5570 5571 5572
5440 5439 5439 5439 5439 5439 5439 5440 5441 5442 5443 5444 5446 5448 5450 5454 5457 5461 5464 5469 5474 5480 5485 5491 5497 5503 5509 5514 5519 5523 5528 5533 5538 5542 5546 5550 5553 5556 5559 5561 5562 5562 5563
5431 5431 5431 5431 5431 5431 5432 5433 5434 5434 5435 5437 5438 5440 5443 5446 5449 5453 5456 5461 5466 5472 5478 5483 5489 5495 5501 5506 5511 5515 5520 5524 5529 5533 5537 5541 5545 5548 5550 5551 5553 5553 5554
5423 5423 5423 5423 5423 5424 5424 5425 5426 5427 5428 5429 5431 5433 5435 5438 5441 5445 5449 5453 5458 5464 5469 5475 5480 5486 5492 5497 5502 5507 5511 5516 5520 5524 5529 5533 5536 5539 5541 5543 5544 5544 5545